User: anonymous   Login
Location: Mississauga
(43.5802°N, 79.6166°W)
Time: 01:18:48
(UTC-04:00)
Language:

Cosmos 1437 Rocket - Orbit

View from above orbital plane
View from above orbital plane
View from above satellite
View from above satellite

Ground track
Ground track

The orbit data is extracted from the following two-line orbital elements,

1 13771U 83003B   18109.74992029  .00000180  00000-0  92858-5 0  9990
2 13771  81.1548   9.7039 0042837  71.1905 289.3960 15.10081027920051
Epoch (UTC): 19 April 2018 17:59:53
Eccentricity: 0.0042837
inclination: 81.1548°
perigee height: 506 km
apogee height: 565 km
right ascension of ascending node: 9.7039°
argument of perigee: 71.1905°
revolutions per day: 15.10081027
mean anomaly at epoch: 289.3960°
orbit number at epoch: 92005

The dashed part of the orbit path shows where the satellite is in the earth's shadow,  

DLR